sat.trackr.live / text

‹ back to catalog

STARLINK-31956

NORAD 59930 · 2024-106J

PAYLOAD ACTIVE UNKNOWN

§ Identity

Operator
Country
US
Launch date
2024-06-01
Launch site
AFETR
Launch vehicle
Mass (kg)
RCS (m²)

Purposes: comms

External: N2YO · Heavens-Above · Gunter

§ Orbital elements

Epoch: 2026-05-24T16:07:01.275456Z

Period
94.27 min
Inclination
43.0000°
Eccentricity
0.0001290
Mean motion
15.27575867 rev/d
Perigee alt
482.2 km
Apogee alt
483.9 km
Semi-major
6,861.2 km
B*
1.9500e-5
RAAN
263.3872°
Arg perigee
264.2691°
Mean anomaly
95.8014°
Rev number
11,214

§ Raw data

STARLINK-319561 59930U 24106J   26144.67154254  .00000275  00000+0  19500-4 0  99922 59930  43.0000 263.3872 0001290 264.2691  95.8014 15.27575867112147

JSON: /api/v1/satellites/59930 · /tle

For live sub-satellite position, see the globe view (requires WebGL).

§ Visibility from observer

Set your observer location to see the next 7 days of passes ≥ 10°. The values pass through the URL so the page stays shareable.

No JS? Fill the form by hand. The geolocation button needs JavaScript.